Data supplied by UK-AIR on 22/3/2016
All Data GMT hour ending 
Status: R =Ratified P=Provisional,P*=As supplied
,,London Harrow Stanmore,,,,,,,,,,,,,,,,,,,,,,,
Date,time,"Non-volatile PM<sub>2.5</sub> (Hourly measured)",status,unit,"PM<sub>2.5</sub> particulate matter (Hourly measured)",status,unit,"Volatile PM<sub>2.5</sub> (Hourly measured)",status,unit
 
01-01-2015,01:00,29.800,R,ugm-3 (TEOM FDMS),31.700,R,ugm-3 (TEOM FDMS),1.500,R,ugm-3 (TEOM FDMS)
01-01-2015,02:00,20.500,R,ugm-3 (TEOM FDMS),27.400,R,ugm-3 (TEOM FDMS),6.500,R,ugm-3 (TEOM FDMS)
01-01-2015,03:00,16.000,R,ugm-3 (TEOM FDMS),18.400,R,ugm-3 (TEOM FDMS),2.200,R,ugm-3 (TEOM FDMS)
01-01-2015,04:00,12.300,R,ugm-3 (TEOM FDMS),15.700,R,ugm-3 (TEOM FDMS),3.200,R,ugm-3 (TEOM FDMS)
01-01-2015,05:00,11.300,R,ugm-3 (TEOM FDMS),14.800,R,ugm-3 (TEOM FDMS),3.400,R,ugm-3 (TEOM FDMS)
01-01-2015,06:00,10.300,R,ugm-3 (TEOM FDMS),12.900,R,ugm-3 (TEOM FDMS),2.500,R,ugm-3 (TEOM FDMS)
01-01-2015,07:00,10.400,R,ugm-3 (TEOM FDMS),13.200,R,ugm-3 (TEOM FDMS),2.700,R,ugm-3 (TEOM FDMS)
01-01-2015,08:00,12.800,R,ugm-3 (TEOM FDMS),17.100,R,ugm-3 (TEOM FDMS),4.000,R,ugm-3 (TEOM FDMS)
01-01-2015,09:00,12.800,R,ugm-3 (TEOM FDMS),16.200,R,ugm-3 (TEOM FDMS),3.200,R,ugm-3 (TEOM FDMS)
01-01-2015,10:00,14.400,R,ugm-3 (TEOM FDMS),18.000,R,ugm-3 (TEOM FDMS),3.400,R,ugm-3 (TEOM FDMS)
01-01-2015,11:00,15.300,R,ugm-3 (TEOM FDMS),19.100,R,ugm-3 (TEOM FDMS),3.600,R,ugm-3 (TEOM FDMS)
01-01-2015,12:00,16.200,R,ugm-3 (TEOM FDMS),21.900,R,ugm-3 (TEOM FDMS),5.400,R,ugm-3 (TEOM FDMS)
01-01-2015,13:00,13.500,R,ugm-3 (TEOM FDMS),20.800,R,ugm-3 (TEOM FDMS),7.000,R,ugm-3 (TEOM FDMS)
01-01-2015,14:00,12.800,R,ugm-3 (TEOM FDMS),18.200,R,ugm-3 (TEOM FDMS),5.100,R,ugm-3 (TEOM FDMS)
01-01-2015,15:00,11.900,R,ugm-3 (TEOM FDMS),16.200,R,ugm-3 (TEOM FDMS),4.000,R,ugm-3 (TEOM FDMS)
01-01-2015,16:00,10.600,R,ugm-3 (TEOM FDMS),15.500,R,ugm-3 (TEOM FDMS),4.700,R,ugm-3 (TEOM FDMS)
01-01-2015,17:00,10.100,R,ugm-3 (TEOM FDMS),13.800,R,ugm-3 (TEOM FDMS),3.600,R,ugm-3 (TEOM FDMS)
01-01-2015,18:00,7.000,R,ugm-3 (TEOM FDMS),9.000,R,ugm-3 (TEOM FDMS),1.900,R,ugm-3 (TEOM FDMS)
01-01-2015,19:00,11.400,R,ugm-3 (TEOM FDMS),14.700,R,ugm-3 (TEOM FDMS),3.100,R,ugm-3 (TEOM FDMS)
01-01-2015,20:00,9.000,R,ugm-3 (TEOM FDMS),14.000,R,ugm-3 (TEOM FDMS),4.800,R,ugm-3 (TEOM FDMS)
01-01-2015,21:00,6.500,R,ugm-3 (TEOM FDMS),9.900,R,ugm-3 (TEOM FDMS),3.300,R,ugm-3 (TEOM FDMS)
01-01-2015,22:00,3.200,R,ugm-3 (TEOM FDMS),6.500,R,ugm-3 (TEOM FDMS),3.300,R,ugm-3 (TEOM FDMS)
01-01-2015,23:00,0.800,R,ugm-3 (TEOM FDMS),3.500,R,ugm-3 (TEOM FDMS),2.700,R,ugm-3 (TEOM FDMS)
01-01-2015,24:00,-0.500,R,ugm-3 (TEOM FDMS),3.100,R,ugm-3 (TEOM FDMS),3.600,R,ugm-3 (TEOM FDMS)
02-01-2015,01:00,0.300,R,ugm-3 (TEOM FDMS),3.500,R,ugm-3 (TEOM FDMS),3.200,R,ugm-3 (TEOM FDMS)
02-01-2015,02:00,0.100,R,ugm-3 (TEOM FDMS),3.800,R,ugm-3 (TEOM FDMS),3.700,R,ugm-3 (TEOM FDMS)
02-01-2015,03:00,0.600,R,ugm-3 (TEOM FDMS),2.400,R,ugm-3 (TEOM FDMS),1.800,R,ugm-3 (TEOM FDMS)
02-01-2015,04:00,0.200,R,ugm-3 (TEOM FDMS),1.200,R,ugm-3 (TEOM FDMS),1.000,R,ugm-3 (TEOM FDMS)
02-01-2015,05:00,5.900,R,ugm-3 (TEOM FDMS),6.500,R,ugm-3 (TEOM FDMS),0.500,R,ugm-3 (TEOM FDMS)
02-01-2015,06:00,4.200,R,ugm-3 (TEOM FDMS),7.500,R,ugm-3 (TEOM FDMS),3.200,R,ugm-3 (TEOM FDMS)
02-01-2015,07:00,1.400,R,ugm-3 (TEOM FDMS),-0.100,R,ugm-3 (TEOM FDMS),-1.500,R,ugm-3 (TEOM FDMS)
02-01-2015,08:00,4.100,R,ugm-3 (TEOM FDMS),4.100,R,ugm-3 (TEOM FDMS),-0.100,R,ugm-3 (TEOM FDMS)
02-01-2015,09:00,6.300,R,ugm-3 (TEOM FDMS),4.000,R,ugm-3 (TEOM FDMS),-2.400,R,ugm-3 (TEOM FDMS)
02-01-2015,10:00,5.200,R,ugm-3 (TEOM FDMS),5.400,R,ugm-3 (TEOM FDMS),0.100,R,ugm-3 (TEOM FDMS)
02-01-2015,11:00,5.500,R,ugm-3 (TEOM FDMS),4.800,R,ugm-3 (TEOM FDMS),-0.800,R,ugm-3 (TEOM FDMS)
02-01-2015,12:00,5.500,R,ugm-3 (TEOM FDMS),6.800,R,ugm-3 (TEOM FDMS),1.200,R,ugm-3 (TEOM FDMS)
02-01-2015,13:00,5.700,R,ugm-3 (TEOM FDMS),6.900,R,ugm-3 (TEOM FDMS),1.100,R,ugm-3 (TEOM FDMS)
02-01-2015,14:00,5.900,R,ugm-3 (TEOM FDMS),7.600,R,ugm-3 (TEOM FDMS),1.600,R,ugm-3 (TEOM FDMS)
02-01-2015,15:00,5.100,R,ugm-3 (TEOM FDMS),4.900,R,ugm-3 (TEOM FDMS),-0.300,R,ugm-3 (TEOM FDMS)
02-01-2015,16:00,7.300,R,ugm-3 (TEOM FDMS),6.800,R,ugm-3 (TEOM FDMS),-0.600,R,ugm-3 (TEOM FDMS)
02-01-2015,17:00,7.200,R,ugm-3 (TEOM FDMS),9.000,R,ugm-3 (TEOM FDMS),1.700,R,ugm-3 (TEOM FDMS)
02-01-2015,18:00,9.100,R,ugm-3 (TEOM FDMS),9.600,R,ugm-3 (TEOM FDMS),0.400,R,ugm-3 (TEOM FDMS)
02-01-2015,19:00,13.700,R,ugm-3 (TEOM FDMS),15.800,R,ugm-3 (TEOM FDMS),1.900,R,ugm-3 (TEOM FDMS)
02-01-2015,20:00,15.100,R,ugm-3 (TEOM FDMS),17.300,R,ugm-3 (TEOM FDMS),2.000,R,ugm-3 (TEOM FDMS)
02-01-2015,21:00,12.700,R,ugm-3 (TEOM FDMS),14.500,R,ugm-3 (TEOM FDMS),1.600,R,ugm-3 (TEOM FDMS)
02-01-2015,22:00,14.000,R,ugm-3 (TEOM FDMS),16.900,R,ugm-3 (TEOM FDMS),2.700,R,ugm-3 (TEOM FDMS)
02-01-2015,23:00,10.900,R,ugm-3 (TEOM FDMS),14.700,R,ugm-3 (TEOM FDMS),3.700,R,ugm-3 (TEOM FDMS)
02-01-2015,24:00,10.500,R,ugm-3 (TEOM FDMS),16.100,R,ugm-3 (TEOM FDMS),5.400,R,ugm-3 (TEOM FDMS)
03-01-2015,01:00,8.700,R,ugm-3 (TEOM FDMS),11.000,R,ugm-3 (TEOM FDMS),2.200,R,ugm-3 (TEOM FDMS)
03-01-2015,02:00,5.900,R,ugm-3 (TEOM FDMS),9.600,R,ugm-3 (TEOM FDMS),3.600,R,ugm-3 (TEOM FDMS)
03-01-2015,03:00,6.300,R,ugm-3 (TEOM FDMS),10.400,R,ugm-3 (TEOM FDMS),3.900,R,ugm-3 (TEOM FDMS)
03-01-2015,04:00,6.100,R,ugm-3 (TEOM FDMS),7.500,R,ugm-3 (TEOM FDMS),1.300,R,ugm-3 (TEOM FDMS)
03-01-2015,05:00,3.700,R,ugm-3 (TEOM FDMS),9.400,R,ugm-3 (TEOM FDMS),5.600,R,ugm-3 (TEOM FDMS)
03-01-2015,06:00,0.600,R,ugm-3 (TEOM FDMS),4.500,R,ugm-3 (TEOM FDMS),3.800,R,ugm-3 (TEOM FDMS)
03-01-2015,07:00,0.200,R,ugm-3 (TEOM FDMS),5.300,R,ugm-3 (TEOM FDMS),5.000,R,ugm-3 (TEOM FDMS)
03-01-2015,08:00,0.300,R,ugm-3 (TEOM FDMS),4.500,R,ugm-3 (TEOM FDMS),4.100,R,ugm-3 (TEOM FDMS)
03-01-2015,09:00,5.100,R,ugm-3 (TEOM FDMS),15.100,R,ugm-3 (TEOM FDMS),9.800,R,ugm-3 (TEOM FDMS)
03-01-2015,10:00,1.300,R,ugm-3 (TEOM FDMS),2.500,R,ugm-3 (TEOM FDMS),1.200,R,ugm-3 (TEOM FDMS)
03-01-2015,11:00,0.700,R,ugm-3 (TEOM FDMS),5.400,R,ugm-3 (TEOM FDMS),4.600,R,ugm-3 (TEOM FDMS)
03-01-2015,12:00,1.300,R,ugm-3 (TEOM FDMS),5.500,R,ugm-3 (TEOM FDMS),4.100,R,ugm-3 (TEOM FDMS)
03-01-2015,13:00,3.100,R,ugm-3 (TEOM FDMS),6.600,R,ugm-3 (TEOM FDMS),3.500,R,ugm-3 (TEOM FDMS)
03-01-2015,14:00,4.600,R,ugm-3 (TEOM FDMS),5.000,R,ugm-3 (TEOM FDMS),0.300,R,ugm-3 (TEOM FDMS)
03-01-2015,15:00,5.200,R,ugm-3 (TEOM FDMS),4.100,R,ugm-3 (TEOM FDMS),-1.200,R,ugm-3 (TEOM FDMS)
03-01-2015,16:00,5.600,R,ugm-3 (TEOM FDMS),4.100,R,ugm-3 (TEOM FDMS),-1.600,R,ugm-3 (TEOM FDMS)
03-01-2015,17:00,5.000,R,ugm-3 (TEOM FDMS),4.200,R,ugm-3 (TEOM FDMS),-0.900,R,ugm-3 (TEOM FDMS)
03-01-2015,18:00,3.800,R,ugm-3 (TEOM FDMS),4.100,R,ugm-3 (TEOM FDMS),0.300,R,ugm-3 (TEOM FDMS)
03-01-2015,19:00,8.000,R,ugm-3 (TEOM FDMS),9.900,R,ugm-3 (TEOM FDMS),1.800,R,ugm-3 (TEOM FDMS)
03-01-2015,20:00,11.200,R,ugm-3 (TEOM FDMS),9.500,R,ugm-3 (TEOM FDMS),-1.800,R,ugm-3 (TEOM FDMS)
03-01-2015,21:00,11.300,R,ugm-3 (TEOM FDMS),12.200,R,ugm-3 (TEOM FDMS),0.800,R,ugm-3 (TEOM FDMS)
03-01-2015,22:00,14.700,R,ugm-3 (TEOM FDMS),16.400,R,ugm-3 (TEOM FDMS),1.500,R,ugm-3 (TEOM FDMS)
03-01-2015,23:00,13.100,R,ugm-3 (TEOM FDMS),15.800,R,ugm-3 (TEOM FDMS),2.500,R,ugm-3 (TEOM FDMS)
03-01-2015,24:00,11.200,R,ugm-3 (TEOM FDMS),17.400,R,ugm-3 (TEOM FDMS),6.000,R,ugm-3 (TEOM FDMS)
04-01-2015,01:00,10.900,R,ugm-3 (TEOM FDMS),15.000,R,ugm-3 (TEOM FDMS),3.900,R,ugm-3 (TEOM FDMS)
04-01-2015,02:00,14.600,R,ugm-3 (TEOM FDMS),20.600,R,ugm-3 (TEOM FDMS),5.700,R,ugm-3 (TEOM FDMS)
04-01-2015,03:00,14.100,R,ugm-3 (TEOM FDMS),18.600,R,ugm-3 (TEOM FDMS),4.200,R,ugm-3 (TEOM FDMS)
04-01-2015,04:00,9.300,R,ugm-3 (TEOM FDMS),14.700,R,ugm-3 (TEOM FDMS),5.200,R,ugm-3 (TEOM FDMS)
04-01-2015,05:00,7.000,R,ugm-3 (TEOM FDMS),11.300,R,ugm-3 (TEOM FDMS),4.100,R,ugm-3 (TEOM FDMS)
04-01-2015,06:00,6.300,R,ugm-3 (TEOM FDMS),9.000,R,ugm-3 (TEOM FDMS),2.600,R,ugm-3 (TEOM FDMS)
04-01-2015,07:00,6.600,R,ugm-3 (TEOM FDMS),11.500,R,ugm-3 (TEOM FDMS),4.700,R,ugm-3 (TEOM FDMS)
04-01-2015,08:00,4.900,R,ugm-3 (TEOM FDMS),5.800,R,ugm-3 (TEOM FDMS),0.800,R,ugm-3 (TEOM FDMS)
04-01-2015,09:00,7.000,R,ugm-3 (TEOM FDMS),11.100,R,ugm-3 (TEOM FDMS),3.900,R,ugm-3 (TEOM FDMS)
04-01-2015,10:00,9.700,R,ugm-3 (TEOM FDMS),12.600,R,ugm-3 (TEOM FDMS),2.800,R,ugm-3 (TEOM FDMS)
04-01-2015,11:00,14.900,R,ugm-3 (TEOM FDMS),18.900,R,ugm-3 (TEOM FDMS),3.800,R,ugm-3 (TEOM FDMS)
04-01-2015,12:00,15.400,R,ugm-3 (TEOM FDMS),21.000,R,ugm-3 (TEOM FDMS),5.300,R,ugm-3 (TEOM FDMS)
04-01-2015,13:00,13.500,R,ugm-3 (TEOM FDMS),18.700,R,ugm-3 (TEOM FDMS),4.900,R,ugm-3 (TEOM FDMS)
04-01-2015,14:00,11.400,R,ugm-3 (TEOM FDMS),17.500,R,ugm-3 (TEOM FDMS),5.800,R,ugm-3 (TEOM FDMS)
04-01-2015,15:00,9.600,R,ugm-3 (TEOM FDMS),16.000,R,ugm-3 (TEOM FDMS),6.200,R,ugm-3 (TEOM FDMS)
04-01-2015,16:00,14.800,R,ugm-3 (TEOM FDMS),21.100,R,ugm-3 (TEOM FDMS),6.000,R,ugm-3 (TEOM FDMS)
04-01-2015,17:00,12.800,R,ugm-3 (TEOM FDMS),18.400,R,ugm-3 (TEOM FDMS),5.300,R,ugm-3 (TEOM FDMS)
04-01-2015,18:00,16.900,R,ugm-3 (TEOM FDMS),23.500,R,ugm-3 (TEOM FDMS),6.300,R,ugm-3 (TEOM FDMS)
04-01-2015,19:00,15.100,R,ugm-3 (TEOM FDMS),22.500,R,ugm-3 (TEOM FDMS),7.100,R,ugm-3 (TEOM FDMS)
04-01-2015,20:00,14.100,R,ugm-3 (TEOM FDMS),19.600,R,ugm-3 (TEOM FDMS),5.200,R,ugm-3 (TEOM FDMS)
04-01-2015,21:00,15.600,R,ugm-3 (TEOM FDMS),19.600,R,ugm-3 (TEOM FDMS),3.800,R,ugm-3 (TEOM FDMS)
04-01-2015,22:00,22.100,R,ugm-3 (TEOM FDMS),29.000,R,ugm-3 (TEOM FDMS),6.500,R,ugm-3 (TEOM FDMS)
04-01-2015,23:00,21.000,R,ugm-3 (TEOM FDMS),27.900,R,ugm-3 (TEOM FDMS),6.500,R,ugm-3 (TEOM FDMS)
04-01-2015,24:00,17.600,R,ugm-3 (TEOM FDMS),24.900,R,ugm-3 (TEOM FDMS),7.000,R,ugm-3 (TEOM FDMS)
05-01-2015,01:00,18.200,R,ugm-3 (TEOM FDMS),25.400,R,ugm-3 (TEOM FDMS),6.900,R,ugm-3 (TEOM FDMS)
05-01-2015,02:00,17.400,R,ugm-3 (TEOM FDMS),24.900,R,ugm-3 (TEOM FDMS),7.200,R,ugm-3 (TEOM FDMS)
05-01-2015,03:00,16.900,R,ugm-3 (TEOM FDMS),24.800,R,ugm-3 (TEOM FDMS),7.600,R,ugm-3 (TEOM FDMS)
05-01-2015,04:00,17.700,R,ugm-3 (TEOM FDMS),24.100,R,ugm-3 (TEOM FDMS),6.100,R,ugm-3 (TEOM FDMS)
05-01-2015,05:00,13.400,R,ugm-3 (TEOM FDMS),20.100,R,ugm-3 (TEOM FDMS),6.400,R,ugm-3 (TEOM FDMS)
05-01-2015,06:00,13.000,R,ugm-3 (TEOM FDMS),16.200,R,ugm-3 (TEOM FDMS),3.000,R,ugm-3 (TEOM FDMS)
05-01-2015,07:00,13.400,R,ugm-3 (TEOM FDMS),19.600,R,ugm-3 (TEOM FDMS),5.900,R,ugm-3 (TEOM FDMS)
05-01-2015,08:00,12.100,R,ugm-3 (TEOM FDMS),17.700,R,ugm-3 (TEOM FDMS),5.300,R,ugm-3 (TEOM FDMS)
05-01-2015,09:00,14.700,R,ugm-3 (TEOM FDMS),21.000,R,ugm-3 (TEOM FDMS),6.000,R,ugm-3 (TEOM FDMS)
05-01-2015,10:00,23.600,R,ugm-3 (TEOM FDMS),30.000,R,ugm-3 (TEOM FDMS),6.000,R,ugm-3 (TEOM FDMS)
05-01-2015,11:00,15.700,R,ugm-3 (TEOM FDMS),22.000,R,ugm-3 (TEOM FDMS),6.000,R,ugm-3 (TEOM FDMS)
05-01-2015,12:00,23.700,R,ugm-3 (TEOM FDMS),29.600,R,ugm-3 (TEOM FDMS),5.500,R,ugm-3 (TEOM FDMS)
05-01-2015,13:00,19.900,R,ugm-3 (TEOM FDMS),25.100,R,ugm-3 (TEOM FDMS),4.800,R,ugm-3 (TEOM FDMS)
05-01-2015,14:00,11.400,R,ugm-3 (TEOM FDMS),17.500,R,ugm-3 (TEOM FDMS),5.800,R,ugm-3 (TEOM FDMS)
05-01-2015,15:00,12.100,R,ugm-3 (TEOM FDMS),19.300,R,ugm-3 (TEOM FDMS),6.900,R,ugm-3 (TEOM FDMS)
05-01-2015,16:00,18.700,R,ugm-3 (TEOM FDMS),25.100,R,ugm-3 (TEOM FDMS),6.100,R,ugm-3 (TEOM FDMS)
05-01-2015,17:00,23.400,R,ugm-3 (TEOM FDMS),27.300,R,ugm-3 (TEOM FDMS),3.600,R,ugm-3 (TEOM FDMS)
05-01-2015,18:00,8.600,R,ugm-3 (TEOM FDMS),14.200,R,ugm-3 (TEOM FDMS),5.400,R,ugm-3 (TEOM FDMS)
05-01-2015,19:00,10.300,R,ugm-3 (TEOM FDMS),12.600,R,ugm-3 (TEOM FDMS),2.200,R,ugm-3 (TEOM FDMS)
05-01-2015,20:00,10.700,R,ugm-3 (TEOM FDMS),14.900,R,ugm-3 (TEOM FDMS),4.000,R,ugm-3 (TEOM FDMS)
05-01-2015,21:00,9.900,R,ugm-3 (TEOM FDMS),14.300,R,ugm-3 (TEOM FDMS),4.200,R,ugm-3 (TEOM FDMS)
05-01-2015,22:00,7.600,R,ugm-3 (TEOM FDMS),11.000,R,ugm-3 (TEOM FDMS),3.300,R,ugm-3 (TEOM FDMS)
05-01-2015,23:00,6.200,R,ugm-3 (TEOM FDMS),9.700,R,ugm-3 (TEOM FDMS),3.400,R,ugm-3 (TEOM FDMS)
05-01-2015,24:00,4.800,R,ugm-3 (TEOM FDMS),10.900,R,ugm-3 (TEOM FDMS),5.900,R,ugm-3 (TEOM FDMS)
06-01-2015,01:00,4.400,R,ugm-3 (TEOM FDMS),8.600,R,ugm-3 (TEOM FDMS),4.000,R,ugm-3 (TEOM FDMS)
06-01-2015,02:00,4.300,R,ugm-3 (TEOM FDMS),8.300,R,ugm-3 (TEOM FDMS),3.800,R,ugm-3 (TEOM FDMS)
06-01-2015,03:00,3.100,R,ugm-3 (TEOM FDMS),8.000,R,ugm-3 (TEOM FDMS),4.800,R,ugm-3 (TEOM FDMS)
06-01-2015,04:00,3.400,R,ugm-3 (TEOM FDMS),6.900,R,ugm-3 (TEOM FDMS),3.500,R,ugm-3 (TEOM FDMS)
06-01-2015,05:00,5.600,R,ugm-3 (TEOM FDMS),9.500,R,ugm-3 (TEOM FDMS),3.800,R,ugm-3 (TEOM FDMS)
06-01-2015,06:00,4.800,R,ugm-3 (TEOM FDMS),7.000,R,ugm-3 (TEOM FDMS),2.100,R,ugm-3 (TEOM FDMS)
06-01-2015,07:00,5.700,R,ugm-3 (TEOM FDMS),7.200,R,ugm-3 (TEOM FDMS),1.400,R,ugm-3 (TEOM FDMS)
06-01-2015,08:00,5.900,R,ugm-3 (TEOM FDMS),9.400,R,ugm-3 (TEOM FDMS),3.400,R,ugm-3 (TEOM FDMS)
06-01-2015,09:00,8.200,R,ugm-3 (TEOM FDMS),11.400,R,ugm-3 (TEOM FDMS),3.100,R,ugm-3 (TEOM FDMS)
06-01-2015,10:00,8.100,R,ugm-3 (TEOM FDMS),12.300,R,ugm-3 (TEOM FDMS),4.000,R,ugm-3 (TEOM FDMS)
06-01-2015,11:00,11.900,R,ugm-3 (TEOM FDMS),15.500,R,ugm-3 (TEOM FDMS),3.400,R,ugm-3 (TEOM FDMS)
06-01-2015,12:00,9.200,R,ugm-3 (TEOM FDMS),14.800,R,ugm-3 (TEOM FDMS),5.400,R,ugm-3 (TEOM FDMS)
06-01-2015,13:00,9.000,R,ugm-3 (TEOM FDMS),11.200,R,ugm-3 (TEOM FDMS),2.100,R,ugm-3 (TEOM FDMS)
06-01-2015,14:00,2.800,R,ugm-3 (TEOM FDMS),5.500,R,ugm-3 (TEOM FDMS),2.700,R,ugm-3 (TEOM FDMS)
06-01-2015,15:00,2.000,R,ugm-3 (TEOM FDMS),5.700,R,ugm-3 (TEOM FDMS),3.700,R,ugm-3 (TEOM FDMS)
06-01-2015,16:00,2.600,R,ugm-3 (TEOM FDMS),3.300,R,ugm-3 (TEOM FDMS),0.700,R,ugm-3 (TEOM FDMS)
06-01-2015,17:00,3.500,R,ugm-3 (TEOM FDMS),4.800,R,ugm-3 (TEOM FDMS),1.300,R,ugm-3 (TEOM FDMS)
06-01-2015,18:00,3.400,R,ugm-3 (TEOM FDMS),4.700,R,ugm-3 (TEOM FDMS),1.300,R,ugm-3 (TEOM FDMS)
06-01-2015,19:00,5.300,R,ugm-3 (TEOM FDMS),8.000,R,ugm-3 (TEOM FDMS),2.600,R,ugm-3 (TEOM FDMS)
06-01-2015,20:00,5.600,R,ugm-3 (TEOM FDMS),6.300,R,ugm-3 (TEOM FDMS),0.600,R,ugm-3 (TEOM FDMS)
06-01-2015,21:00,10.200,R,ugm-3 (TEOM FDMS),10.600,R,ugm-3 (TEOM FDMS),0.300,R,ugm-3 (TEOM FDMS)
06-01-2015,22:00,12.400,R,ugm-3 (TEOM FDMS),16.600,R,ugm-3 (TEOM FDMS),3.900,R,ugm-3 (TEOM FDMS)
06-01-2015,23:00,9.000,R,ugm-3 (TEOM FDMS),11.600,R,ugm-3 (TEOM FDMS),2.500,R,ugm-3 (TEOM FDMS)
06-01-2015,24:00,11.400,R,ugm-3 (TEOM FDMS),14.300,R,ugm-3 (TEOM FDMS),2.700,R,ugm-3 (TEOM FDMS)
07-01-2015,01:00,9.900,R,ugm-3 (TEOM FDMS),12.000,R,ugm-3 (TEOM FDMS),2.000,R,ugm-3 (TEOM FDMS)
07-01-2015,02:00,12.700,R,ugm-3 (TEOM FDMS),15.200,R,ugm-3 (TEOM FDMS),2.300,R,ugm-3 (TEOM FDMS)
07-01-2015,03:00,9.900,R,ugm-3 (TEOM FDMS),13.000,R,ugm-3 (TEOM FDMS),3.000,R,ugm-3 (TEOM FDMS)
07-01-2015,04:00,9.300,R,ugm-3 (TEOM FDMS),11.900,R,ugm-3 (TEOM FDMS),2.500,R,ugm-3 (TEOM FDMS)
07-01-2015,05:00,8.800,R,ugm-3 (TEOM FDMS),11.700,R,ugm-3 (TEOM FDMS),2.800,R,ugm-3 (TEOM FDMS)
07-01-2015,06:00,5.900,R,ugm-3 (TEOM FDMS),10.900,R,ugm-3 (TEOM FDMS),4.800,R,ugm-3 (TEOM FDMS)
07-01-2015,07:00,9.400,R,ugm-3 (TEOM FDMS),12.500,R,ugm-3 (TEOM FDMS),3.000,R,ugm-3 (TEOM FDMS)
07-01-2015,08:00,9.000,R,ugm-3 (TEOM FDMS),12.800,R,ugm-3 (TEOM FDMS),3.700,R,ugm-3 (TEOM FDMS)
07-01-2015,09:00,10.800,R,ugm-3 (TEOM FDMS),12.600,R,ugm-3 (TEOM FDMS),1.700,R,ugm-3 (TEOM FDMS)
07-01-2015,10:00,7.400,R,ugm-3 (TEOM FDMS),10.300,R,ugm-3 (TEOM FDMS),2.800,R,ugm-3 (TEOM FDMS)
07-01-2015,11:00,7.700,R,ugm-3 (TEOM FDMS),10.700,R,ugm-3 (TEOM FDMS),2.900,R,ugm-3 (TEOM FDMS)
07-01-2015,12:00,2.800,R,ugm-3 (TEOM FDMS),6.800,R,ugm-3 (TEOM FDMS),3.900,R,ugm-3 (TEOM FDMS)
07-01-2015,13:00,3.000,R,ugm-3 (TEOM FDMS),8.100,R,ugm-3 (TEOM FDMS),5.000,R,ugm-3 (TEOM FDMS)
07-01-2015,14:00,3.400,R,ugm-3 (TEOM FDMS),6.800,R,ugm-3 (TEOM FDMS),3.400,R,ugm-3 (TEOM FDMS)
07-01-2015,15:00,4.300,R,ugm-3 (TEOM FDMS),7.500,R,ugm-3 (TEOM FDMS),3.100,R,ugm-3 (TEOM FDMS)
07-01-2015,16:00,3.500,R,ugm-3 (TEOM FDMS),5.700,R,ugm-3 (TEOM FDMS),2.200,R,ugm-3 (TEOM FDMS)
07-01-2015,17:00,6.200,R,ugm-3 (TEOM FDMS),7.900,R,ugm-3 (TEOM FDMS),1.600,R,ugm-3 (TEOM FDMS)
07-01-2015,18:00,2.700,R,ugm-3 (TEOM FDMS),5.000,R,ugm-3 (TEOM FDMS),2.300,R,ugm-3 (TEOM FDMS)
07-01-2015,19:00,6.100,R,ugm-3 (TEOM FDMS),7.100,R,ugm-3 (TEOM FDMS),0.900,R,ugm-3 (TEOM FDMS)
07-01-2015,20:00,7.400,R,ugm-3 (TEOM FDMS),8.500,R,ugm-3 (TEOM FDMS),1.000,R,ugm-3 (TEOM FDMS)
07-01-2015,21:00,3.300,R,ugm-3 (TEOM FDMS),6.900,R,ugm-3 (TEOM FDMS),3.600,R,ugm-3 (TEOM FDMS)
07-01-2015,22:00,7.700,R,ugm-3 (TEOM FDMS),9.100,R,ugm-3 (TEOM FDMS),1.300,R,ugm-3 (TEOM FDMS)
07-01-2015,23:00,3.300,R,ugm-3 (TEOM FDMS),4.700,R,ugm-3 (TEOM FDMS),1.400,R,ugm-3 (TEOM FDMS)
07-01-2015,24:00,3.800,R,ugm-3 (TEOM FDMS),4.900,R,ugm-3 (TEOM FDMS),1.000,R,ugm-3 (TEOM FDMS)
08-01-2015,01:00,3.900,R,ugm-3 (TEOM FDMS),9.600,R,ugm-3 (TEOM FDMS),5.500,R,ugm-3 (TEOM FDMS)
08-01-2015,02:00,2.400,R,ugm-3 (TEOM FDMS),4.800,R,ugm-3 (TEOM FDMS),2.400,R,ugm-3 (TEOM FDMS)
08-01-2015,03:00,0.400,R,ugm-3 (TEOM FDMS),4.600,R,ugm-3 (TEOM FDMS),4.100,R,ugm-3 (TEOM FDMS)
08-01-2015,04:00,3.200,R,ugm-3 (TEOM FDMS),5.900,R,ugm-3 (TEOM FDMS),2.700,R,ugm-3 (TEOM FDMS)
08-01-2015,05:00,0.600,R,ugm-3 (TEOM FDMS),4.300,R,ugm-3 (TEOM FDMS),3.700,R,ugm-3 (TEOM FDMS)
08-01-2015,06:00,3.200,R,ugm-3 (TEOM FDMS),5.000,R,ugm-3 (TEOM FDMS),1.800,R,ugm-3 (TEOM FDMS)
08-01-2015,07:00,2.300,R,ugm-3 (TEOM FDMS),6.000,R,ugm-3 (TEOM FDMS),3.700,R,ugm-3 (TEOM FDMS)
08-01-2015,08:00,3.000,R,ugm-3 (TEOM FDMS),0.600,R,ugm-3 (TEOM FDMS),-2.400,R,ugm-3 (TEOM FDMS)
08-01-2015,09:00,3.100,R,ugm-3 (TEOM FDMS),6.000,R,ugm-3 (TEOM FDMS),2.900,R,ugm-3 (TEOM FDMS)
08-01-2015,10:00,4.500,R,ugm-3 (TEOM FDMS),5.600,R,ugm-3 (TEOM FDMS),1.000,R,ugm-3 (TEOM FDMS)
08-01-2015,11:00,6.600,R,ugm-3 (TEOM FDMS),7.800,R,ugm-3 (TEOM FDMS),1.100,R,ugm-3 (TEOM FDMS)
08-01-2015,12:00,2.000,R,ugm-3 (TEOM FDMS),2.900,R,ugm-3 (TEOM FDMS),0.900,R,ugm-3 (TEOM FDMS)
08-01-2015,13:00,7.500,R,ugm-3 (TEOM FDMS),6.300,R,ugm-3 (TEOM FDMS),-1.300,R,ugm-3 (TEOM FDMS)
08-01-2015,14:00,3.100,R,ugm-3 (TEOM FDMS),1.600,R,ugm-3 (TEOM FDMS),-1.500,R,ugm-3 (TEOM FDMS)
08-01-2015,15:00,5.600,R,ugm-3 (TEOM FDMS),5.800,R,ugm-3 (TEOM FDMS),0.100,R,ugm-3 (TEOM FDMS)
08-01-2015,16:00,7.000,R,ugm-3 (TEOM FDMS),9.300,R,ugm-3 (TEOM FDMS),2.200,R,ugm-3 (TEOM FDMS)
08-01-2015,17:00,7.900,R,ugm-3 (TEOM FDMS),7.300,R,ugm-3 (TEOM FDMS),-0.700,R,ugm-3 (TEOM FDMS)
08-01-2015,18:00,8.600,R,ugm-3 (TEOM FDMS),11.300,R,ugm-3 (TEOM FDMS),2.600,R,ugm-3 (TEOM FDMS)
08-01-2015,19:00,6.000,R,ugm-3 (TEOM FDMS),6.900,R,ugm-3 (TEOM FDMS),0.800,R,ugm-3 (TEOM FDMS)
08-01-2015,20:00,2.500,R,ugm-3 (TEOM FDMS),3.400,R,ugm-3 (TEOM FDMS),0.900,R,ugm-3 (TEOM FDMS)
08-01-2015,21:00,-2.100,R,ugm-3 (TEOM FDMS),-0.400,R,ugm-3 (TEOM FDMS),1.700,R,ugm-3 (TEOM FDMS)
08-01-2015,22:00,1.400,R,ugm-3 (TEOM FDMS),6.300,R,ugm-3 (TEOM FDMS),4.800,R,ugm-3 (TEOM FDMS)
08-01-2015,23:00,5.400,R,ugm-3 (TEOM FDMS),8.500,R,ugm-3 (TEOM FDMS),3.000,R,ugm-3 (TEOM FDMS)
08-01-2015,24:00,6.200,R,ugm-3 (TEOM FDMS),11.100,R,ugm-3 (TEOM FDMS),4.700,R,ugm-3 (TEOM FDMS)
09-01-2015,01:00,4.600,R,ugm-3 (TEOM FDMS),10.200,R,ugm-3 (TEOM FDMS),5.400,R,ugm-3 (TEOM FDMS)
09-01-2015,02:00,3.400,R,ugm-3 (TEOM FDMS),6.800,R,ugm-3 (TEOM FDMS),3.400,R,ugm-3 (TEOM FDMS)
09-01-2015,03:00,4.700,R,ugm-3 (TEOM FDMS),7.200,R,ugm-3 (TEOM FDMS),2.400,R,ugm-3 (TEOM FDMS)
09-01-2015,04:00,5.000,R,ugm-3 (TEOM FDMS),8.700,R,ugm-3 (TEOM FDMS),3.600,R,ugm-3 (TEOM FDMS)
09-01-2015,05:00,1.100,R,ugm-3 (TEOM FDMS),3.600,R,ugm-3 (TEOM FDMS),2.500,R,ugm-3 (TEOM FDMS)
09-01-2015,06:00,-2.800,R,ugm-3 (TEOM FDMS),0.500,R,ugm-3 (TEOM FDMS),3.300,R,ugm-3 (TEOM FDMS)
09-01-2015,07:00,1.700,R,ugm-3 (TEOM FDMS),4.200,R,ugm-3 (TEOM FDMS),2.500,R,ugm-3 (TEOM FDMS)
09-01-2015,08:00,1.400,R,ugm-3 (TEOM FDMS),1.300,R,ugm-3 (TEOM FDMS),-0.100,R,ugm-3 (TEOM FDMS)
09-01-2015,09:00,1.200,R,ugm-3 (TEOM FDMS),3.800,R,ugm-3 (TEOM FDMS),2.600,R,ugm-3 (TEOM FDMS)
09-01-2015,10:00,6.500,R,ugm-3 (TEOM FDMS),5.200,R,ugm-3 (TEOM FDMS),-1.400,R,ugm-3 (TEOM FDMS)
09-01-2015,11:00,7.300,R,ugm-3 (TEOM FDMS),10.000,R,ugm-3 (TEOM FDMS),2.600,R,ugm-3 (TEOM FDMS)
09-01-2015,12:00,4.800,R,ugm-3 (TEOM FDMS),7.800,R,ugm-3 (TEOM FDMS),2.900,R,ugm-3 (TEOM FDMS)
09-01-2015,13:00,3.700,R,ugm-3 (TEOM FDMS),10.100,R,ugm-3 (TEOM FDMS),6.300,R,ugm-3 (TEOM FDMS)
09-01-2015,14:00,5.800,R,ugm-3 (TEOM FDMS),8.600,R,ugm-3 (TEOM FDMS),2.700,R,ugm-3 (TEOM FDMS)
09-01-2015,15:00,7.600,R,ugm-3 (TEOM FDMS),12.900,R,ugm-3 (TEOM FDMS),5.100,R,ugm-3 (TEOM FDMS)
09-01-2015,16:00,6.500,R,ugm-3 (TEOM FDMS),7.800,R,ugm-3 (TEOM FDMS),1.200,R,ugm-3 (TEOM FDMS)
09-01-2015,17:00,5.000,R,ugm-3 (TEOM FDMS),7.600,R,ugm-3 (TEOM FDMS),2.500,R,ugm-3 (TEOM FDMS)
09-01-2015,18:00,5.900,R,ugm-3 (TEOM FDMS),6.800,R,ugm-3 (TEOM FDMS),0.800,R,ugm-3 (TEOM FDMS)
09-01-2015,19:00,4.000,R,ugm-3 (TEOM FDMS),7.700,R,ugm-3 (TEOM FDMS),3.600,R,ugm-3 (TEOM FDMS)
09-01-2015,20:00,5.900,R,ugm-3 (TEOM FDMS),3.400,R,ugm-3 (TEOM FDMS),-2.600,R,ugm-3 (TEOM FDMS)
09-01-2015,21:00,2.600,R,ugm-3 (TEOM FDMS),6.200,R,ugm-3 (TEOM FDMS),3.600,R,ugm-3 (TEOM FDMS)
09-01-2015,22:00,2.200,R,ugm-3 (TEOM FDMS),3.900,R,ugm-3 (TEOM FDMS),1.700,R,ugm-3 (TEOM FDMS)
09-01-2015,23:00,1.200,R,ugm-3 (TEOM FDMS),2.700,R,ugm-3 (TEOM FDMS),1.500,R,ugm-3 (TEOM FDMS)
09-01-2015,24:00,-0.200,R,ugm-3 (TEOM FDMS),1.900,R,ugm-3 (TEOM FDMS),2.100,R,ugm-3 (TEOM FDMS)
10-01-2015,01:00,-1.200,R,ugm-3 (TEOM FDMS),4.000,R,ugm-3 (TEOM FDMS),5.100,R,ugm-3 (TEOM FDMS)
10-01-2015,02:00,-0.500,R,ugm-3 (TEOM FDMS),4.300,R,ugm-3 (TEOM FDMS),4.700,R,ugm-3 (TEOM FDMS)
10-01-2015,03:00,-0.200,R,ugm-3 (TEOM FDMS),3.100,R,ugm-3 (TEOM FDMS),3.300,R,ugm-3 (TEOM FDMS)
10-01-2015,04:00,-0.800,R,ugm-3 (TEOM FDMS),5.700,R,ugm-3 (TEOM FDMS),6.400,R,ugm-3 (TEOM FDMS)
10-01-2015,05:00,-2.700,R,ugm-3 (TEOM FDMS),2.300,R,ugm-3 (TEOM FDMS),4.900,R,ugm-3 (TEOM FDMS)
10-01-2015,06:00,-1.600,R,ugm-3 (TEOM FDMS),2.000,R,ugm-3 (TEOM FDMS),3.600,R,ugm-3 (TEOM FDMS)
10-01-2015,07:00,-0.600,R,ugm-3 (TEOM FDMS),2.600,R,ugm-3 (TEOM FDMS),3.200,R,ugm-3 (TEOM FDMS)
10-01-2015,08:00,1.200,R,ugm-3 (TEOM FDMS),5.300,R,ugm-3 (TEOM FDMS),4.000,R,ugm-3 (TEOM FDMS)
10-01-2015,09:00,2.700,R,ugm-3 (TEOM FDMS),6.500,R,ugm-3 (TEOM FDMS),3.800,R,ugm-3 (TEOM FDMS)
10-01-2015,10:00,0.500,R,ugm-3 (TEOM FDMS),2.100,R,ugm-3 (TEOM FDMS),1.600,R,ugm-3 (TEOM FDMS)
10-01-2015,11:00,0.700,R,ugm-3 (TEOM FDMS),0.400,R,ugm-3 (TEOM FDMS),-0.300,R,ugm-3 (TEOM FDMS)
10-01-2015,12:00,1.800,R,ugm-3 (TEOM FDMS),2.700,R,ugm-3 (TEOM FDMS),0.900,R,ugm-3 (TEOM FDMS)
10-01-2015,13:00,4.500,R,ugm-3 (TEOM FDMS),3.200,R,ugm-3 (TEOM FDMS),-1.400,R,ugm-3 (TEOM FDMS)
10-01-2015,14:00,4.300,R,ugm-3 (TEOM FDMS),5.600,R,ugm-3 (TEOM FDMS),1.200,R,ugm-3 (TEOM FDMS)
10-01-2015,15:00,4.600,R,ugm-3 (TEOM FDMS),6.500,R,ugm-3 (TEOM FDMS),1.800,R,ugm-3 (TEOM FDMS)
10-01-2015,16:00,4.500,R,ugm-3 (TEOM FDMS),7.800,R,ugm-3 (TEOM FDMS),3.200,R,ugm-3 (TEOM FDMS)
10-01-2015,17:00,4.400,R,ugm-3 (TEOM FDMS),5.700,R,ugm-3 (TEOM FDMS),1.200,R,ugm-3 (TEOM FDMS)
10-01-2015,18:00,6.000,R,ugm-3 (TEOM FDMS),9.100,R,ugm-3 (TEOM FDMS),3.000,R,ugm-3 (TEOM FDMS)
10-01-2015,19:00,6.900,R,ugm-3 (TEOM FDMS),6.900,R,ugm-3 (TEOM FDMS),-0.100,R,ugm-3 (TEOM FDMS)
10-01-2015,20:00,5.200,R,ugm-3 (TEOM FDMS),6.500,R,ugm-3 (TEOM FDMS),1.200,R,ugm-3 (TEOM FDMS)
10-01-2015,21:00,4.500,R,ugm-3 (TEOM FDMS),5.800,R,ugm-3 (TEOM FDMS),1.200,R,ugm-3 (TEOM FDMS)
10-01-2015,22:00,7.200,R,ugm-3 (TEOM FDMS),8.300,R,ugm-3 (TEOM FDMS),1.000,R,ugm-3 (TEOM FDMS)
10-01-2015,23:00,7.400,R,ugm-3 (TEOM FDMS),9.700,R,ugm-3 (TEOM FDMS),2.200,R,ugm-3 (TEOM FDMS)
10-01-2015,24:00,8.400,R,ugm-3 (TEOM FDMS),10.500,R,ugm-3 (TEOM FDMS),2.000,R,ugm-3 (TEOM FDMS)
11-01-2015,01:00,5.100,R,ugm-3 (TEOM FDMS),7.100,R,ugm-3 (TEOM FDMS),1.900,R,ugm-3 (TEOM FDMS)
11-01-2015,02:00,5.400,R,ugm-3 (TEOM FDMS),9.900,R,ugm-3 (TEOM FDMS),4.300,R,ugm-3 (TEOM FDMS)
11-01-2015,03:00,5.300,R,ugm-3 (TEOM FDMS),7.800,R,ugm-3 (TEOM FDMS),2.400,R,ugm-3 (TEOM FDMS)
11-01-2015,04:00,4.200,R,ugm-3 (TEOM FDMS),5.200,R,ugm-3 (TEOM FDMS),0.900,R,ugm-3 (TEOM FDMS)
11-01-2015,05:00,3.800,R,ugm-3 (TEOM FDMS),4.300,R,ugm-3 (TEOM FDMS),0.500,R,ugm-3 (TEOM FDMS)
11-01-2015,06:00,5.100,R,ugm-3 (TEOM FDMS),4.300,R,ugm-3 (TEOM FDMS),-0.900,R,ugm-3 (TEOM FDMS)